[[{"header":{"parameterUnit":"m.s-1","parameterCategory":1,"la1":30.2991,"la2":30.254,"lo1":-89.0895,"lo2":-89.0444,"dy":0.0017,"dx":0.0017,"nx":28,"ny":28,"refTime":"2024-07-16T09:00:00:Z","depth":0,"parameterNumber":2,"parameterNumberName":"U-component_of_WINDS"},"data":[0,0,0,0,0,0,0,0,0,0,0,0,0,0,0,0,0,0,0,0,0,0,0,0,0,0,0,0,0,0,0,0,0,0,0,0,0,0,0,0,0,0,0,0,0,0,0,0,0,0,0,0,0,0,0,0,0,0,3.2313,3.2314,0,3.2416,3.2417,3.2418,3.2406,3.2405,3.2403,3.2402,3.2505,3.2509,3.2513,0,0,0,0,0,0,0,0,0,0,0,0,0,3.2102,3.2106,3.2313,3.2314,3.2316,3.2416,3.2417,3.2419,3.2407,3.2405,3.2403,3.2401,3.2503,3.2508,3.2514,0,0,0,0,0,0,0,0,0,0,0,0,0,3.2198,3.2107,3.2313,3.2322,3.2324,3.2416,3.2417,3.2419,3.2407,3.2405,3.2402,3.24,3.2502,3.2508,3.2514,3.2603,0,0,3.2534,3.2537,0,0,0,0,0,0,0,0,3.2193,3.2206,3.2319,3.2321,3.2324,3.2396,3.2381,3.2481,3.2408,3.2375,3.2401,3.2399,3.247,3.2479,3.2504,3.2608,3.2612,3.2534,3.2538,3.2541,3.2543,0,0,0,0,0,0,0,3.2186,3.2201,3.2354,3.2321,3.2323,3.2319,3.233,3.24,3.2435,3.2378,3.2377,3.239,3.2471,3.2498,3.2506,3.2614,3.2534,3.254,3.2544,3.2546,3.2792,3.2795,0,0,0,0,0,0,3.2178,3.2196,3.235,3.2357,3.2251,3.2325,3.2337,3.2375,3.2435,3.2441,3.2392,3.2389,3.2488,3.2499,3.251,3.2615,3.2541,3.2547,3.2551,3.279,3.2793,3.2796,0,0,0,0,0,0,3.2173,3.2191,3.2346,3.2276,3.2296,3.2331,3.2374,3.2378,3.2405,3.2445,3.2451,3.2413,3.2486,3.2501,3.2579,3.2618,3.255,3.2556,3.2786,3.2791,3.2794,3.2827,0,0,0,0,0,0,3.2167,3.219,3.2225,3.2277,3.2299,3.2415,3.2376,3.2382,3.2416,3.2414,3.2466,3.2473,3.2486,3.257,3.2586,3.2626,3.2561,3.2783,3.2788,3.2793,3.2823,3.2832,3.284,0,0,0,0,0,3.216,3.2231,3.2227,3.2246,3.2344,3.2418,3.243,3.2444,3.242,3.2454,3.248,3.2471,3.2612,3.2578,3.2596,3.2638,3.2781,3.2787,3.2793,3.2819,3.283,3.2839,0,0,0,0,0,0,3.2182,3.2238,3.2234,3.2325,3.2367,3.2416,3.246,3.2456,3.2506,3.2501,3.2516,3.2528,3.2606,3.2631,3.2592,3.2726,3.2693,3.2703,3.2706,3.2717,3.2726,3.2717,3.2566,0,0,0,0,0,3.2198,3.2254,3.2299,3.2374,3.2395,3.2424,3.2457,3.2464,3.2507,3.2525,3.2556,3.2598,3.2651,3.2686,3.2738,3.2827,3.2836,3.2865,3.2873,3.288,3.2887,3.2932,3.2945,3.2816,3.2815,3.2815,0,0,3.223,3.2268,3.2302,3.238,3.2413,3.2468,3.2439,3.25,3.2541,3.2534,3.2609,3.2634,3.2681,3.2764,3.2803,3.2787,3.2925,3.2888,3.2893,3.2896,3.294,3.2952,3.2963,3.282,3.2819,3.2818,0,0,3.2317,3.2353,3.2417,3.2451,3.2502,3.252,3.2536,3.2585,3.2601,3.2677,3.2672,3.272,3.2813,3.2846,3.2875,3.2972,3.2964,3.2989,3.3032,3.3076,3.3086,3.3095,3.3126,3.3137,3.2997,3.2997,3.2997,0,3.2351,3.2436,3.2451,3.2512,3.2544,3.2541,3.2605,3.2637,3.2702,3.2724,3.2706,3.282,3.2853,3.2941,3.2965,3.299,3.3006,3.2982,3.3083,3.3092,3.3101,3.3131,3.3143,3.2999,3.2999,3.2999,3.2998,0,3.2472,3.2531,3.2577,3.2639,3.2678,3.274,3.2763,3.28,3.2803,3.2823,3.2899,3.2937,3.2995,3.3017,3.3022,3.3106,3.3094,3.308,3.3046,3.3115,3.3143,3.3155,3.3002,3.3001,3.3001,3.3,0,0,3.2576,3.2645,3.2661,3.2688,3.2743,3.2787,3.2849,3.2905,3.2935,3.298,3.3029,3.3107,3.3093,3.3126,3.3134,3.3173,3.3243,3.3153,3.3155,3.3166,3.3334,3.3342,3.3355,3.324,3.3242,3.3244,3.3329,0,3.2665,3.2774,3.2788,3.2884,3.2936,3.2933,3.2986,3.3024,3.3044,3.309,3.3112,3.3165,3.3145,3.3164,3.3203,3.3226,3.3276,3.3221,3.3283,3.3285,3.3268,3.3371,3.338,3.3459,3.334,3.3342,3.3344,0,3.2785,3.2831,3.2932,3.2977,3.2999,3.3047,3.3098,3.3143,3.3186,3.3197,3.3233,3.3236,3.3296,3.3263,3.3345,3.3307,3.3333,3.3348,3.3352,3.3356,3.3316,3.3374,3.3485,3.3495,3.3362,3.336,3.3359,0,3.2845,3.2934,3.3004,3.3028,3.3083,3.3116,3.314,3.318,3.3213,3.3258,3.3278,3.333,3.3357,3.3396,3.3412,3.3386,3.3492,3.346,3.3501,3.35,3.3521,3.3519,3.3634,3.3544,3.3544,3.3543,3.3543,0,3.2942,3.3002,3.3032,3.3075,3.3142,3.3158,3.3223,3.3246,3.3281,3.3327,3.3329,3.3372,3.3392,3.3437,3.345,3.3514,3.3528,3.3536,3.3538,3.3535,3.3533,3.355,3.3544,3.3546,3.3546,3.3545,3.3545,0,3.302,3.3043,3.3118,3.3164,3.3177,3.3224,3.3262,3.3303,3.3322,3.338,3.3395,3.3424,3.3477,3.3498,3.3563,3.3572,3.3645,3.3644,3.363,3.363,3.3668,3.3662,3.3795,3.3812,3.3713,3.3714,3.3715,0,3.3078,3.3125,3.3175,3.3206,3.3231,3.3282,3.3314,3.3331,3.3364,3.3415,3.3449,3.3502,3.3545,3.363,3.3656,3.3706,3.3704,3.3747,3.3711,3.3705,3.37,3.3696,3.3699,3.3753,3.3754,3.3755,3.3755,0,3.3178,3.3187,3.3234,3.3285,3.3323,3.3364,3.3403,3.3428,3.3451,3.3488,3.3542,3.3576,3.3642,3.3693,3.3743,3.3767,3.3764,3.3767,3.3778,3.3773,3.3761,3.3764,3.3644,3.3763,3.3762,3.3762,3.3761,3.3761,3.3246,3.3286,3.3327,3.3378,3.341,3.3446,3.3485,3.3509,3.3555,3.3609,3.3617,3.3674,3.3713,3.378,3.3806,3.385,3.3838,3.3856,3.3859,3.3863,3.3863,3.3757,3.386,3.386,3.3859,3.3859,3.3859,0,3.3343,3.3369,3.3417,3.3471,3.3511,3.3506,3.3549,3.3582,3.3632,3.3669,3.3711,3.3772,3.3822,3.3852,3.3902,3.3931,3.393,3.3943,3.3939,3.3944,3.3873,3.3856,3.3942,3.3942,3.3942,3.3942,3.3942,3.3942,3.3398,3.3464,3.3477,3.3557,3.3583,3.3639,3.3663,3.3696,3.3725,3.3793,3.3834,3.3854,3.3887,3.3938,3.3983,3.399,3.4007,3.402,3.4026,3.3958,3.3949,3.3941,3.3925,3.4024,3.4024,3.4093,3.4093,3.4094]},{"header":{"parameterUnit":"m.s-1","parameterCategory":1,"la1":30.2991,"la2":30.254,"lo1":-89.0895,"lo2":-89.0444,"dy":0.0017,"dx":0.0017,"nx":28,"ny":28,"refTime":"2024-07-16T09:00:00:Z","depth":0,"parameterNumber":3,"parameterNumberName":"V-component_of_WINDS"},"data":[0,0,0,0,0,0,0,0,0,0,0,0,0,0,0,0,0,0,0,0,0,0,0,0,0,0,0,0,0,0,0,0,0,0,0,0,0,0,0,0,0,0,0,0,0,0,0,0,0,0,0,0,0,0,0,0,0,0,2.6375,2.6376,0,2.6458,2.6459,2.646,2.6434,2.6432,2.643,2.6429,2.6513,2.6517,2.6521,0,0,0,0,0,0,0,0,0,0,0,0,0,2.6191,2.6194,2.6375,2.6376,2.6377,2.6458,2.6459,2.646,2.6434,2.6432,2.643,2.6428,2.6512,2.6517,2.6521,0,0,0,0,0,0,0,0,0,0,0,0,0,2.6272,2.6196,2.6374,2.6373,2.6374,2.6458,2.6459,2.646,2.6435,2.6432,2.6429,2.6427,2.6511,2.6516,2.6522,2.6611,0,0,2.654,2.6543,0,0,0,0,0,0,0,0,2.6268,2.6279,2.6373,2.6374,2.6375,2.6433,2.6425,2.6511,2.6435,2.6412,2.6429,2.6426,2.6489,2.6496,2.6518,2.6615,2.6619,2.6541,2.6544,2.6547,2.6548,0,0,0,0,0,0,0,2.6262,2.6275,2.6408,2.6374,2.6375,2.6368,2.6377,2.6441,2.6464,2.6414,2.6412,2.6422,2.6489,2.6512,2.6519,2.662,2.654,2.6546,2.6549,2.6551,2.6792,2.6795,0,0,0,0,0,0,2.6256,2.6271,2.6405,2.641,2.6314,2.6374,2.6383,2.6417,2.6463,2.6468,2.6424,2.6421,2.6503,2.6513,2.6522,2.6628,2.6547,2.6552,2.6555,2.679,2.6793,2.6796,0,0,0,0,0,0,2.6252,2.6268,2.6402,2.634,2.6356,2.638,2.6417,2.642,2.6443,2.6471,2.6475,2.6444,2.6502,2.6514,2.6589,2.6631,2.6555,2.656,2.6786,2.6791,2.6795,2.6842,0,0,0,0,0,0,2.6247,2.6267,2.6302,2.6341,2.636,2.6467,2.642,2.6423,2.6453,2.6449,2.6491,2.6495,2.6501,2.658,2.6595,2.6638,2.6565,2.6783,2.6788,2.6793,2.6837,2.6847,2.6856,0,0,0,0,0,2.624,2.6312,2.6304,2.632,2.6404,2.647,2.6481,2.6485,2.6457,2.6491,2.6509,2.6494,2.6624,2.6588,2.6604,2.6649,2.678,2.6787,2.6793,2.6832,2.6845,2.6856,0,0,0,0,0,0,2.6277,2.6317,2.6308,2.6395,2.6429,2.6465,2.6509,2.6499,2.6543,2.6537,2.6541,2.655,2.6627,2.6646,2.6605,2.6737,2.6698,2.6708,2.6722,2.6734,2.6744,2.6738,2.6569,0,0,0,0,0,2.6296,2.6346,2.6378,2.6451,2.6469,2.6486,2.6515,2.6516,2.6552,2.6566,2.6589,2.6624,2.6673,2.6705,2.6751,2.6839,2.6847,2.6878,2.6888,2.6896,2.6904,2.695,2.6964,2.6818,2.6818,2.6817,0,0,2.6334,2.6362,2.6394,2.6459,2.6486,2.6538,2.6499,2.6556,2.6594,2.6575,2.6646,2.6664,2.6703,2.6785,2.6822,2.6803,2.6946,2.6904,2.691,2.6914,2.6958,2.6972,2.6985,2.6822,2.6821,2.6821,0,0,2.643,2.6456,2.6519,2.6547,2.6587,2.6598,2.6613,2.6651,2.6662,2.6734,2.672,2.6765,2.6849,2.6877,2.6902,2.7006,2.6993,2.7021,2.7072,2.7117,2.7129,2.7139,2.7175,2.7188,2.7029,2.7029,2.7029,0,2.6472,2.655,2.6553,2.6611,2.6639,2.6624,2.6687,2.6713,2.6767,2.6787,2.6765,2.6868,2.6894,2.698,2.7005,2.7027,2.7043,2.7016,2.7127,2.7137,2.7147,2.7181,2.7194,2.7032,2.7032,2.7032,2.7031,0,2.6599,2.6653,2.6699,2.675,2.6784,2.6845,2.6856,2.689,2.6887,2.6899,2.6972,2.7001,2.7052,2.7073,2.7071,2.7159,2.7146,2.7126,2.7086,2.7164,2.7196,2.7209,2.7037,2.7036,2.7035,2.7034,0,0,2.6721,2.6773,2.679,2.6812,2.6855,2.6896,2.6955,2.7005,2.7033,2.707,2.7118,2.7189,2.7169,2.7198,2.7199,2.7238,2.7317,2.7213,2.7214,2.723,2.7414,2.7429,2.7444,2.7308,2.7311,2.7313,2.741,0,2.682,2.6923,2.6927,2.7021,2.707,2.7055,2.7106,2.7137,2.715,2.7193,2.7207,2.7256,2.7228,2.7244,2.7283,2.7299,2.7354,2.7292,2.7353,2.7355,2.7343,2.7461,2.7477,2.7567,2.7423,2.7425,2.7427,0,2.6949,2.6989,2.7088,2.7122,2.7143,2.7189,2.7233,2.7275,2.7309,2.7316,2.7347,2.7341,2.74,2.7358,2.7438,2.7397,2.7421,2.7433,2.7436,2.7442,2.7395,2.7469,2.7596,2.761,2.7447,2.7445,2.7444,0,2.7027,2.7106,2.7175,2.7195,2.7236,2.7268,2.7287,2.7319,2.7348,2.7387,2.7406,2.7451,2.7476,2.7511,2.7517,2.7487,2.7597,2.7557,2.7603,2.7603,2.7627,2.7626,2.776,2.7644,2.7644,2.7644,2.7644,0,2.7136,2.7197,2.721,2.7253,2.7319,2.7323,2.7389,2.7405,2.7433,2.7477,2.7467,2.7509,2.7515,2.7558,2.7564,2.7628,2.764,2.7646,2.7646,2.7647,2.7646,2.7663,2.7656,2.7647,2.7647,2.7646,2.7645,0,2.7235,2.7246,2.732,2.7353,2.7362,2.741,2.7438,2.7478,2.7489,2.7545,2.7558,2.7576,2.7626,2.7636,2.7695,2.7698,2.7775,2.777,2.7763,2.7763,2.7808,2.7804,2.7958,2.7978,2.785,2.7851,2.7852,0,2.7304,2.735,2.7387,2.7416,2.7436,2.7483,2.7512,2.7517,2.7547,2.7589,2.7624,2.7672,2.7711,2.7791,2.7809,2.7854,2.7849,2.79,2.7856,2.7854,2.7848,2.7845,2.7849,2.7908,2.791,2.7911,2.7912,0,2.7424,2.7427,2.7469,2.7514,2.7549,2.7584,2.7617,2.7641,2.765,2.7685,2.7735,2.7766,2.7825,2.7873,2.7918,2.7936,2.7925,2.7925,2.7938,2.7939,2.7933,2.7935,2.7786,2.7922,2.7921,2.792,2.792,2.7919,2.7509,2.7549,2.7581,2.7628,2.7653,2.7684,2.7723,2.7738,2.7781,2.7829,2.7829,2.7884,2.7916,2.7974,2.7995,2.8037,2.8021,2.804,2.8045,2.805,2.8053,2.7926,2.8046,2.8045,2.8045,2.8045,2.8045,0,2.7628,2.7647,2.7691,2.7737,2.7774,2.776,2.7796,2.7827,2.7876,2.7906,2.7945,2.8002,2.8048,2.8069,2.8114,2.8143,2.8139,2.8155,2.8153,2.8157,2.8066,2.805,2.8157,2.8157,2.8157,2.8157,2.8157,2.8157,2.7694,2.776,2.7766,2.7844,2.7863,2.7916,2.7938,2.7966,2.799,2.8054,2.8092,2.8105,2.8131,2.8178,2.8219,2.8223,2.824,2.8258,2.826,2.8175,2.8163,2.8152,2.8137,2.8262,2.8262,2.8348,2.8348,2.8349]}]]